Location: Haut Kerinec
(48.0623°N, 4.4081°W)
Time: 18:45:05
(UTC+00:00)

Cosmos 1378 - Pass Details

Date: 01 June 2020
Orbit: 492 x 502 km, 82.5° (Epoch: 07 July)

Event Time Altitude Azimuth Distance (km) Brightness Sun altitude
Exits shadow 21:09:39 11° 142° (SE) 1,631 5.0 -8.3°
Maximum altitude 21:12:29 24° 90° (E) 1,068 4.4 -8.6°
Drops below altitude 10° 21:15:31 10° 35° (NE) 1,705 6.0 -9.0°
Sets 21:17:54 0° 21° (NNE) 2,592 7.2 -9.2°
